| time (UTC) | temp C | wind direction | speed KPH | gust KPH | rain 1hr cm | rain 24hr cm | rain mn cm | humidity % | barometer mb |
| 20260505153339 | 17 | 261 | 14.5 | 19.3 | 0.00 | 0.00 | 0.00 | 71 | 1011.6 |
| 20260505152341 | 17 | 265 | 16.1 | 19.3 | 0.00 | 0.00 | 0.00 | 72 | 1011.5 |
| 20260505151340 | 17 | 232 | 12.9 | 20.9 | 0.00 | 0.00 | 0.00 | 72 | 1011.5 |
| 20260505150346 | 16 | 259 | 12.9 | 20.9 | 0.00 | 0.00 | 0.00 | 73 | 1011.4 |
| 20260505140332 | 11 | 149 | 3.2 | 4.8 | 0.00 | 0.00 | 0.00 | 74 | 1010.8 |
| 20260505124340 | 8 | 152 | 0.0 | 9.7 | 0.00 | 0.00 | 0.00 | 79 | 1010.1 |
| 20260505123350 | 8 | 153 | 4.8 | 9.7 | 0.00 | 0.00 | 0.00 | 79 | 1010.1 |
| 20260505122328 | 8 | 163 | 0.0 | 3.2 | 0.00 | 0.00 | 0.00 | 80 | 1010.0 |
| 20260505121345 | 9 | 161 | 0.0 | 0.0 | 0.00 | 0.00 | 0.00 | 80 | 1009.8 |
| 20260505120328 | 9 | 161 | 0.0 | 3.2 | 0.00 | 0.00 | 0.00 | 80 | 1009.8 |
| 20260505115340 | 9 | 161 | 0.0 | 0.0 | 0.00 | 0.00 | 0.00 | 80 | 1009.8 |
| 20260505114330 | 10 | 161 | 0.0 | 1.6 | 0.00 | 0.00 | 0.00 | 80 | 1009.7 |
| 20260505113349 | 10 | 161 | 0.0 | 0.0 | 0.00 | 0.00 | 0.00 | 80 | 1009.5 |
| 20260505112331 | 10 | 161 | 1.6 | 4.8 | 0.00 | 0.00 | 0.00 | 80 | 1009.5 |
| 20260505111339 | 10 | 153 | 0.0 | 1.6 | 0.00 | 0.00 | 0.00 | 80 | 1009.4 |
| 20260505110342 | 11 | 153 | 0.0 | 3.2 | 0.00 | 0.00 | 0.00 | 80 | 1009.2 |
| 20260505101332 | 12 | 143 | 8.0 | 9.7 | 0.00 | 0.00 | 0.00 | 78 | 1008.8 |
| 20260505100345 | 12 | 150 | 3.2 | 8.0 | 0.00 | 0.00 | 0.00 | 78 | 1008.7 |
| 20260505095328 | 12 | 143 | 0.0 | 3.2 | 0.00 | 0.00 | 0.00 | 78 | 1008.7 |
| 20260505094332 | 12 | 143 | 3.2 | 6.4 | 0.00 | 0.00 | 0.00 | 78 | 1008.6 |
| 20260505093359 | 12 | 156 | 0.0 | 0.0 | 0.00 | 0.00 | 0.00 | 77 | 1008.6 |
| 20260505092346 | 13 | 156 | 0.0 | 3.2 | 0.00 | 0.00 | 0.00 | 77 | 1008.6 |
| 20260505091332 | 13 | 156 | 4.8 | 6.4 | 0.00 | 0.00 | 0.00 | 76 | 1008.5 |
| 20260505090351 | 13 | 149 | 3.2 | 6.4 | 0.00 | 0.00 | 0.00 | 77 | 1008.6 |
| 20260505085339 | 13 | 148 | 4.8 | 8.0 | 0.00 | 0.00 | 0.00 | 77 | 1008.5 |
| 20260505084336 | 13 | 137 | 6.4 | 8.0 | 0.00 | 0.00 | 0.00 | 78 | 1008.4 |
| 20260505083324 | 12 | 216 | 0.0 | 0.0 | 0.00 | 0.00 | 0.00 | 79 | 1008.3 |
| 20260505082337 | 12 | 237 | 0.0 | 1.6 | 0.00 | 0.00 | 0.00 | 79 | 1008.2 |
| 20260505081357 | 12 | 237 | 0.0 | 4.8 | 0.00 | 0.00 | 0.00 | 78 | 1008.3 |
| 20260505080336 | 12 | 237 | 3.2 | 6.4 | 0.00 | 0.00 | 0.00 | 78 | 1008.3 |
| 20260505075329 | 13 | 234 | 4.8 | 8.0 | 0.00 | 0.00 | 0.00 | 76 | 1008.2 |
| 20260505074409 | 13 | 221 | 4.8 | 6.4 | 0.00 | 0.00 | 0.00 | 76 | 1008.2 |
| 20260505073353 | 13 | 221 | 3.2 | 4.8 | 0.00 | 0.00 | 0.00 | 75 | 1008.0 |
| 20260505072337 | 13 | 221 | 0.0 | 0.0 | 0.00 | 0.00 | 0.00 | 74 | 1008.0 |
| 20260505071335 | 13 | 221 | 0.0 | 0.0 | 0.00 | 0.00 | 0.00 | 74 | 1008.1 |
| 20260505070347 | 14 | 221 | 0.0 | 6.4 | 0.00 | 0.00 | 0.00 | 73 | 1007.9 |
| 20260505065345 | 13 | 213 | 3.2 | 4.8 | 0.00 | 0.00 | 0.00 | 74 | 1007.8 |
| 20260505064335 | 13 | 206 | 4.8 | 6.4 | 0.00 | 0.00 | 0.00 | 75 | 1007.6 |
| 20260505063351 | 13 | 201 | 0.0 | 0.0 | 0.00 | 0.00 | 0.00 | 75 | 1007.6 |
| 20260505062332 | 13 | 201 | 0.0 | 0.0 | 0.00 | 0.00 | 0.00 | 74 | 1007.6 |
| 20260505061340 | 13 | 201 | 0.0 | 1.6 | 0.00 | 0.00 | 0.00 | 74 | 1007.6 |
| 20260505060358 | 13 | 201 | 0.0 | 3.2 | 0.00 | 0.00 | 0.00 | 73 | 1007.6 |
| 20260505055345 | 13 | 147 | 0.0 | 3.2 | 0.00 | 0.00 | 0.00 | 72 | 1007.4 |
| 20260505054339 | 14 | 146 | 1.6 | 4.8 | 0.00 | 0.00 | 0.00 | 71 | 1007.2 |
| 20260505053349 | 14 | 146 | 0.0 | 4.8 | 0.00 | 0.00 | 0.00 | 71 | 1007.0 |
| 20260505052337 | 13 | 146 | 3.2 | 8.0 | 0.00 | 0.00 | 0.00 | 72 | 1007.1 |
| 20260505051328 | 13 | 169 | 1.6 | 4.8 | 0.00 | 0.00 | 0.00 | 71 | 1007.0 |
| 20260505050331 | 14 | 170 | 0.0 | 0.0 | 0.00 | 0.00 | 0.00 | 70 | 1007.0 |
| 20260505041358 | 15 | 164 | 0.0 | 6.4 | 0.00 | 0.00 | 0.00 | 68 | 1006.8 |
| 20260505040338 | 15 | 151 | 3.2 | 4.8 | 0.00 | 0.00 | 0.00 | 67 | 1006.8 |
| 20260505035336 | 16 | 151 | 4.8 | 6.4 | 0.00 | 0.00 | 0.00 | 65 | 1006.6 |
| 20260505034350 | 16 | 167 | 4.8 | 8.0 | 0.00 | 0.00 | 0.00 | 66 | 1006.5 |
| 20260505033332 | 16 | 155 | 6.4 | 8.0 | 0.00 | 0.00 | 0.00 | 68 | 1006.4 |
| 20260505032400 | 16 | 156 | 0.0 | 0.0 | 0.00 | 0.00 | 0.00 | 66 | 1006.3 |
| 20260505031352 | 17 | 156 | 0.0 | 4.8 | 0.00 | 0.00 | 0.00 | 66 | 1006.2 |
| 20260505030332 | 18 | 155 | 3.2 | 6.4 | 0.00 | 0.00 | 0.00 | 64 | 1006.2 |
| 20260505025332 | 20 | 161 | 0.0 | 1.6 | 0.00 | 0.00 | 0.00 | 58 | 1006.2 |
| 20260505024350 | 21 | 161 | 0.0 | 1.6 | 0.00 | 0.00 | 0.00 | 56 | 1006.1 |
| 20260505023338 | 22 | 160 | 0.0 | 3.2 | 0.00 | 0.00 | 0.00 | 51 | 1006.1 |
| 20260505022326 | 25 | 5 | 1.6 | 3.2 | 0.00 | 0.00 | 0.00 | 50 | 1006.1 |
| 20260505021349 | 25 | 9 | 0.0 | 3.2 | 0.00 | 0.00 | 0.00 | 47 | 1006.1 |
| 20260505020424 | 26 | 9 | 0.0 | 3.2 | 0.00 | 0.00 | 0.00 | 46 | 1006.1 |
| 20260505015328 | 26 | 9 | 0.0 | 3.2 | 0.00 | 0.00 | 0.00 | 40 | 1006.2 |
| 20260505014349 | 27 | 9 | 1.6 | 8.0 | 0.00 | 0.00 | 0.00 | 36 | 1006.3 |
| 20260505013331 | 27 | 10 | 4.8 | 11.3 | 0.00 | 0.00 | 0.00 | 27 | 1006.4 |
| 20260505012340 | 27 | 5 | 4.8 | 12.9 | 0.00 | 0.00 | 0.00 | 28 | 1006.5 |
| 20260505011355 | 27 | 21 | 6.4 | 17.7 | 0.00 | 0.00 | 0.00 | 27 | 1006.6 |
| 20260505010344 | 27 | 28 | 6.4 | 11.3 | 0.00 | 0.00 | 0.00 | 27 | 1006.6 |
| 20260505005347 | 27 | 14 | 8.0 | 20.9 | 0.00 | 0.00 | 0.00 | 26 | 1006.6 |
| 20260505004331 | 27 | 360 | 8.0 | 16.1 | 0.00 | 0.00 | 0.00 | 26 | 1006.7 |
| 20260505003333 | 27 | 27 | 6.4 | 16.1 | 0.00 | 0.00 | 0.00 | 27 | 1006.7 |
| 20260505002338 | 27 | 14 | 9.7 | 17.7 | 0.00 | 0.00 | 0.00 | 25 | 1006.8 |
| 20260505001352 | 27 | 16 | 11.3 | 17.7 | 0.00 | 0.00 | 0.00 | 25 | 1006.8 |
| 20260505000329 | 28 | 17 | 8.0 | 19.3 | 0.00 | 0.00 | 0.00 | 25 | 1006.8 |
| 20260504235332 | 28 | 9 | 9.7 | 17.7 | 0.00 | 0.00 | 0.00 | 26 | 1006.8 |
| 20260504234336 | 27 | 13 | 11.3 | 17.7 | 0.00 | 0.00 | 0.00 | 25 | 1006.9 |
| 20260504233337 | 28 | 11 | 9.7 | 17.7 | 0.00 | 0.00 | 0.00 | 25 | 1006.8 |
| 20260504232338 | 28 | 38 | 9.7 | 19.3 | 0.00 | 0.00 | 0.00 | 23 | 1007.0 |
| 20260504231400 | 28 | 21 | 11.3 | 17.7 | 0.00 | 0.00 | 0.00 | 22 | 1007.0 |
| 20260504230334 | 28 | 279 | 6.4 | 12.9 | 0.00 | 0.00 | 0.00 | 24 | 1007.1 |
| 20260504225330 | 28 | 360 | 6.4 | 9.7 | 0.00 | 0.00 | 0.00 | 27 | 1007.1 |
| 20260504224345 | 28 | 298 | 4.8 | 19.3 | 0.00 | 0.00 | 0.00 | 25 | 1007.2 |
| 20260504223335 | 27 | 11 | 4.8 | 11.3 | 0.00 | 0.00 | 0.00 | 24 | 1007.3 |
| 20260504222403 | 28 | 269 | 12.9 | 16.1 | 0.00 | 0.00 | 0.00 | 32 | 1007.4 |
| 20260504221345 | 27 | 334 | 8.0 | 29.0 | 0.00 | 0.00 | 0.00 | 28 | 1007.5 |
| 20260504220329 | 28 | 5 | 6.4 | 12.9 | 0.00 | 0.00 | 0.00 | 26 | 1007.6 |
| 20260504215345 | 28 | 296 | 6.4 | 14.5 | 0.00 | 0.00 | 0.00 | 31 | 1007.8 |
| 20260504214342 | 27 | 10 | 4.8 | 12.9 | 0.00 | 0.00 | 0.00 | 30 | 1007.9 |
| 20260504213347 | 27 | 304 | 6.4 | 11.3 | 0.00 | 0.00 | 0.00 | 30 | 1007.9 |
| 20260504212335 | 27 | 319 | 6.4 | 12.9 | 0.00 | 0.00 | 0.00 | 34 | 1008.0 |
| 20260504211332 | 26 | 277 | 12.9 | 22.5 | 0.00 | 0.00 | 0.00 | 32 | 1008.1 |
| 20260504210327 | 27 | 280 | 8.0 | 14.5 | 0.00 | 0.00 | 0.00 | 38 | 1008.2 |
| 20260504205357 | 26 | 278 | 8.0 | 17.7 | 0.00 | 0.00 | 0.00 | 34 | 1008.3 |
| 20260504204402 | 26 | 344 | 4.8 | 14.5 | 0.00 | 0.00 | 0.00 | 36 | 1008.4 |
| 20260504203352 | 25 | 264 | 9.7 | 17.7 | 0.00 | 0.00 | 0.00 | 38 | 1008.5 |
| 20260504202333 | 25 | 291 | 6.4 | 12.9 | 0.00 | 0.00 | 0.00 | 34 | 1008.7 |
| 20260504201335 | 25 | 267 | 6.4 | 12.9 | 0.00 | 0.00 | 0.00 | 37 | 1008.6 |
| 20260504200335 | 25 | 238 | 8.0 | 11.3 | 0.00 | 0.00 | 0.00 | 39 | 1008.7 |
| 20260504195404 | 25 | 270 | 8.0 | 12.9 | 0.00 | 0.00 | 0.00 | 35 | 1008.8 |
| 20260504194328 | 25 | 263 | 6.4 | 11.3 | 0.00 | 0.00 | 0.00 | 40 | 1008.9 |
| 20260504193337 | 24 | 292 | 3.2 | 12.9 | 0.00 | 0.00 | 0.00 | 40 | 1008.9 |
| 20260504192359 | 24 | 274 | 3.2 | 14.5 | 0.00 | 0.00 | 0.00 | 43 | 1009.0 |
| 20260504191337 | 23 | 309 | 4.8 | 8.0 | 0.00 | 0.00 | 0.00 | 44 | 1009.1 |
| 20260504190404 | 23 | 277 | 8.0 | 12.9 | 0.00 | 0.00 | 0.00 | 42 | 1009.1 |
| 20260504185343 | 23 | 280 | 3.2 | 12.9 | 0.00 | 0.00 | 0.00 | 43 | 1009.2 |
| 20260504184330 | 23 | 298 | 4.8 | 11.3 | 0.00 | 0.00 | 0.00 | 44 | 1009.2 |
| 20260504183343 | 22 | 273 | 6.4 | 11.3 | 0.00 | 0.00 | 0.00 | 50 | 1009.3 |
| 20260504182355 | 22 | 335 | 6.4 | 17.7 | 0.00 | 0.00 | 0.00 | 47 | 1009.4 |
| 20260504181327 | 22 | 254 | 6.4 | 12.9 | 0.00 | 0.00 | 0.00 | 48 | 1009.4 |
| 20260504180337 | 21 | 255 | 8.0 | 14.5 | 0.00 | 0.00 | 0.00 | 50 | 1009.5 |
| 20260504175342 | 21 | 242 | 8.0 | 14.5 | 0.00 | 0.00 | 0.00 | 48 | 1009.5 |
| 20260504174415 | 21 | 248 | 8.0 | 17.7 | 0.00 | 0.00 | 0.00 | 52 | 1009.5 |
| 20260504173404 | 21 | 257 | 12.9 | 19.3 | 0.00 | 0.00 | 0.00 | 50 | 1009.4 |
| 20260504172341 | 20 | 268 | 11.3 | 16.1 | 0.00 | 0.00 | 0.00 | 50 | 1009.5 |
| 20260504171330 | 20 | 271 | 12.9 | 16.1 | 0.00 | 0.00 | 0.00 | 50 | 1009.5 |
| 20260504170343 | 20 | 275 | 12.9 | 16.1 | 0.00 | 0.00 | 0.00 | 53 | 1009.4 |
| 20260504160346 | 19 | 267 | 11.3 | 16.1 | 0.00 | 0.00 | 0.00 | 52 | 1009.4 |